Overview Statistics Trail Chart Weather Telemetry Raw packets
 

This is the latest recevied weather packets stored in our database for station/object XE2RCS-1. If no packets are shown the sender has not sent any weather packets the latest 10 day(s).

<< 24 25 26 27 28 29 30 >>
Time Temp. Humidity Pressure Rain* Wind** Luminosity Snow
1788313527 24.44° C 51% 1016 hPa 0 mm - - -
1788312926 25.56° C 67% 1016 hPa 0 mm - - -
1788312325 25.56° C 66% 1014 hPa 0 mm - - -
1788311725 25.56° C 63% 1015 hPa 0 mm - - -
1788311124 25.56° C 50% 1015 hPa 0 mm - - -
1788310523 25.56° C 54% 1015 hPa 0 mm - - -
1788309922 26.11° C 70% 1015 hPa 0 mm - - -
1788309322 26.11° C 70% 1015 hPa 0 mm - - -
1788308721 26.11° C 70% 1013 hPa 0 mm - - -
1788308120 26.11° C 70% 1013 hPa 0 mm - - -
1788307520 26.11° C 71% 1013 hPa 0 mm - - -
1788306919 25.56° C 56% 1013 hPa 0 mm - - -
1788306318 26.11° C 70% 1013 hPa 0 mm - - -
1788305718 25.56° C 54% 1013 hPa 0 mm - - -
1788305117 25.56° C 61% 1012 hPa 0 mm - - -
1788304516 26.11° C 72% 1012 hPa 0 mm - - -
1788303916 28.89° C 10% - 0 mm - - -
1788303315 29.44° C 10% - 0 mm - - -
1788302714 29.44° C 10% - 0 mm - - -
1788302114 24.44° C 10% - 0 mm - - -
1788301513 24.44° C 10% - 0 mm - - -
1788300912 24.44° C 10% - 0 mm - - -
1788300312 26.67° C 50% 1014 hPa 0 mm - - -
1788299711 28.89° C 57% 1014 hPa 0 mm - - -
1788299110 30° C 41% 1014 hPa 0 mm - - -

* Rain latest hour (hover to see other rain measurements)
** Current wind speed in m/s (hover to see current wind gust speed)